Hourly Data Report for February 18, 2005

TORONTO CITY
ONTARIO

43°40'00.000" N
79°24'00.000" W
112.50 m
6158355
71508
XTO

Download Data

Hourly Data (February 2005)
Hourly Data Report for February 18, 2005
TIME
LST
Temp Definition
°C
Dew Point Definition
°C
Rel Hum Definition
%
Precip. Amount Definition
mm

Wind Dir Definition
10's deg

Wind Spd Definition
km/h
Visibility Definition
km
Stn Press Definition
kPa
Hmdx Definition


Wind Chill Definition


Weather Definition


00:00 -6.6 -11.2 70   LegendMM LegendMM   100.02     LegendNANA
01:00 -6.9 -11.7 69   LegendMM LegendMM   100.04     LegendNANA
02:00 -7.5 -11.8 71   LegendMM LegendMM   100.06     LegendNANA
03:00 -7.8 -12.3 70   LegendMM LegendMM   100.09     LegendNANA
04:00 -8.8 -12.7 73   LegendMM LegendMM   100.17     LegendNANA
05:00 -9.7 -13.4 74   LegendMM LegendMM   100.25     LegendNANA
06:00 -10.1 -13.4 77   LegendMM LegendMM   100.34     LegendNANA
07:00 -11.6 -15.3 74   LegendMM LegendMM   100.43     LegendNANA
08:00 -12.4 -17.1 68   LegendMM LegendMM   100.56     LegendNANA
09:00 -12.2 -17.4 65   LegendMM LegendMM   100.65     LegendNANA
10:00 -11.9 -17.7 62   LegendMM LegendMM   100.73     LegendNANA
11:00 -10.7 -17.3 58   LegendMM LegendMM   100.76     LegendNANA
12:00 -10.5 -17.9 55   LegendMM LegendMM   100.82     LegendNANA
13:00 -10.1 -17.5 55   LegendMM LegendMM   100.81     LegendNANA
14:00 -8.9 -16.2 55   LegendMM LegendMM   100.80     LegendNANA
15:00 -9.2 -16.9 54   LegendMM LegendMM   100.84     LegendNANA
16:00 -9.1 -17.3 51   LegendMM LegendMM   100.92     LegendNANA
17:00 -9.1 -17.6 50   LegendMM LegendMM   100.94     LegendNANA
18:00 -9.5 -17.4 53   LegendMM LegendMM   100.99     LegendNANA
19:00 -9.9 -17.2 55   LegendMM LegendMM   101.04     LegendNANA
20:00 -10.3 -16.8 59   LegendMM LegendMM   101.07     LegendNANA
21:00 -10.6 -16.4 62   LegendMM LegendMM   101.09     LegendNANA
22:00 -10.8 -16.1 65   LegendMM LegendMM   101.06     LegendNANA
23:00 -10.6 -16.0 64   LegendMM LegendMM   101.01     LegendNANA

Notes on Data Quality.

Legend

  • E = Estimated
  • M = Missing
  • NA = Not Available*
  • [empty] = Indicates an unobserved value
Date modified: